DELTA 1 DEB, 12580

Orbit data source: Space-Track

DELTA 1 DEB, 12580 is space debris in LEO originally from a launch on Thu, 29 Jul 1976 UTC launched from the Air Force Western Test Range (AFWTR). Debris objects in space refer to the collection of defunct objects orbiting the Earth. Examples of debris include non-operational satellites, rocket bodies, and fragments generated from explosions, collisions, or faulty payload assembly.

Loading next visibility...
Identifier
12580, 1976-077DY
Orbit
LEO
Country
Flag of USUS
Related business
Manufacturer
Unknown
Mission
Spacecraft
Bus & Motor
Unknown
Mass
Unknown
Launch date (UTC)
1976-07-29 (50 years ago)
Launch vehicle
Unknown
Launch site
Air Force Western Test Range (AFWTR)
Object type
Payload
Rocket body
Debris
Shape & HBR
Unknown shape, 1.1 m
Radar Cross Section
Small (<0.1 m²)

Expand to show TLE details & history
Last TLE update: 3 days ago

TLE from 3 days ago
0 DELTA 1 DEB
1 12580U 76077DY  26103.15376381  .00000219  00000-0  48645-2 0  9990
2 12580 102.4353 175.0576 0615141 280.1239  99.3233 11.28335861977640
Epoch: 2026-04-13T03:41Z
TLE epoch observation values (Epoch: 2026-04-13T03:41:25.193Z)
Latitude
25.66673°
Longitude
-87.70093°
Altitude
2,135.338 km
Speed
6.799 km/s
True Right ascension
11h 16m 00s
True Declination
25° 33' 16"
Sunlit
Object was in full shadow at epoch
Visualization orbit readout
Latitude
Unknown
Longitude
Unknown
Altitude
Unknown
Speed
Unknown
Apparent Right ascension
Unknown
Apparent Declination
Unknown
Sunlit
N/A
Visualization observer readout
Local Sidereal Time
18:10:51
Azimuth
Unknown
Elevation
Unknown
Doppler factor
Unknown
Orbital elements
Apogee altitude
2,532.693 km
Perigee altitude
1,499.939 km
Semi-major axis
8,394.453 km
Eccentricity
0.06151
Inclination
102.4353°
RAAN
175.0576°
Arg. of periapsis
280.1239°
True anomaly
106.1772°
Mean anomaly
99.3233°
Eccentric anomaly
102.76075°
Mean motion
2.82198 °/min
Orbital period
127.57 mins
BSTAR
0.0048645
Loading maneuver chart data...
Computing Atmospheric mass density...
Loading historical data...
Loading historical data...
Loading historical data...
Loading historical data...
Loading historical data...
Loading historical data...
Loading historical data...

Documentation

Showing up to 5 results
|